Hundvaag 1 weather for Jun 1993
Month no. 72
Obs.
Da.
Temp. Dew Point Precip. Wind
Speed
Wind gusts Cloud cover Press. Humidity Wind dir. Sunny OPT
01.06.1993 8,3   9,2                
02.06.1993 7,7   0,0             1  
03.06.1993 9,8   0,0             1  
04.06.1993 10,6   0,0             1  
05.06.1993 10,5   1,2                
06.06.1993 10,9   8,0                
07.06.1993 10,3   6,1                
08.06.1993 12,2   0,0             1  
09.06.1993 13,3   0,0             1  
10.06.1993 12,1   0,0             1  
11.06.1993 16,8   0,0             1  
12.06.1993 17,6   0,0             1  
13.06.1993 13,0   0,0             1  
14.06.1993 7,9   0,9             1  
15.06.1993 7,8   0,0             1  
16.06.1993 8,7   0,0                
17.06.1993 8,4   4,0                
18.06.1993 9,7   0,0             1  
19.06.1993 12,0   1,0                
20.06.1993 11,8   0,0             1  
21.06.1993 8,7   3,1                
22.06.1993 9,0   0,0             1  
23.06.1993 9,8   0,9             1  
24.06.1993 9,5   1,9             1  
25.06.1993 10,2   0,0             1  
26.06.1993 12,5   0,0             1  
27.06.1993 13,3   5,0                
28.06.1993 11,3   0,0             1  
29.06.1993 9,3   0,0             1  
30.06.1993 13,6   0,0             1  
                       
Avrg/Sum 10,9   41,3             21